Theta_e
278 278 277 278 279 279 279 278 275 270 273 275 276 279 280 280 281 281 280 282 285 286 287 287 288 289 290 291 292 294 296 297 298 299 301 303 307 310
278 277 277 277 278 278 278 278 277 274 270 275 276 277 279 279 280 279 279 281 282 283 284 285 286 287 288 289 290 292 294 295 296 297 299 301 304 310
276 276 276 277 276 276 276 276 275 275 271 274 276 277 276 276 277 277 278 277 278 281 283 284 285 285 286 287 288 290 291 292 294 295 297 300 301 308
275 275 275 276 274 275 275 274 274 274 273 270 273 274 274 276 276 276 276 278 277 280 282 283 284 285 285 286 287 288 289 290 291 292 294 296 299 303
274 274 274 274 273 274 273 273 273 274 273 272 271 274 274 275 275 275 276 277 278 280 282 282 283 283 284 285 285 286 287 288 290 290 291 293 296 300
274 274 274 274 273 274 274 274 274 273 273 272 271 272 273 275 275 274 274 276 276 278 280 280 281 282 283 284 284 284 285 286 288 290 291 293 294 295
274 274 275 275 276 276 275 274 274 273 273 272 272 273 273 273 273 275 274 274 275 276 276 276 277 278 279 281 281 283 286 286 287 289 290 292 293 294
274 275 275 275 275 277 278 279 278 275 273 273 273 273 273 274 275 274 273 272 269 276 274 273 276 275 277 280 283 284 285 285 286 288 290 293 293 294
275 274 274 275 275 274 276 277 278 278 279 276 273 273 273 274 274 273 273 272 272 274 275 272 275 274 276 278 282 283 284 285 286 287 290 291 293 293
274 275 274 274 274 275 275 274 275 275 276 277 276 275 276 276 276 276 275 276 276 276 277 271 275 273 276 277 281 283 284 285 286 288 289 290 294 294
274 275 274 274 276 277 275 273 274 275 278 278 278 279 280 279 277 274 270 269 267 270 274 273 274 274 276 276 278 283 284 285 286 287 290 292 293 294
274 274 276 275 276 277 275 274 271 272 272 272 274 273 273 272 274 273 270 267 268 269 275 273 273 273 271 276 278 280 281 286 287 289 289 292 293 292
272 273 273 275 276 278 278 274 272 274 274 270 268 268 269 270 270 272 272 271 269 268 273 275 273 273 272 272 276 278 279 280 281 283 288 291 292 292
271 272 272 274 276 276 275 274 275 274 267 266 265 266 267 268 270 271 272 272 272 271 272 274 271 274 273 272 272 276 278 280 280 280 283 288 290 291
272 272 274 273 272 271 271 273 271 267 266 264 265 266 268 270 270 270 271 272 272 272 274 274 273 273 274 273 273 275 276 278 279 279 281 285 286 288
272 268 268 269 269 269 267 268 267 267 266 265 266 267 268 268 268 270 269 269 269 269 272 272 272 272 271 274 276 275 277 275 278 280 280 284 287 288
261 258 261 263 264 264 265 265 266 266 265 266 266 265 266 267 267 270 270 268 266 265 266 269 271 272 272 273 273 276 276 277 278 279 280 281 284 286
255 254 259 261 261 262 262 262 263 264 265 265 265 265 265 265 266 269 269 267 265 265 265 266 267 267 269 272 277 276 277 278 279 280 281 280 282 285
251 253 256 259 259 260 261 261 261 263 264 264 264 264 265 266 267 267 267 267 265 265 265 266 265 265 262 262 271 282 278 279 279 279 281 281 282 284
251 251 252 255 257 258 259 259 260 261 262 262 263 263 265 265 267 266 266 265 265 265 264 265 265 265 264 263 266 273 277 280 279 279 281 283 286 288
251 251 252 254 255 256 256 256 257 258 260 260 261 263 264 267 266 266 266 266 265 264 263 264 266 269 268 268 266 267 273 281 284 282 284 284 284 286
253 252 251 251 252 251 253 254 256 257 259 260 261 263 264 267 266 265 265 265 264 264 264 266 267 267 266 265 264 266 270 276 284 286 286 286 284 284
253 251 251 250 249 248 250 253 254 257 258 260 261 263 266 265 266 266 265 265 265 264 264 263 264 266 265 266 266 267 269 273 279 284 285 287 286 286
Wind_Speed
5 5 3 3 3 3 3 3 4 6 7 1 3 2 1 2 8 11 11 20 26 29 31 33 34 33 33 34 35 35 34 34 34 36 36 37 35 34
4 5 4 3 3 3 4 4 5 7 10 3 4 7 8 7 11 13 13 25 27 29 32 34 34 34 34 35 35 35 35 36 36 37 37 37 39 35
4 5 4 4 3 3 4 5 6 7 12 14 6 9 11 14 14 12 13 14 14 28 32 34 35 35 36 37 37 37 37 37 37 38 38 38 40 37
7 6 5 4 5 5 5 7 8 8 9 22 14 11 14 14 16 17 14 13 15 24 32 34 35 35 38 38 37 37 37 37 37 38 39 41 41 39
7 6 6 6 7 6 7 7 6 8 8 12 20 12 12 13 16 16 16 17 14 26 31 34 34 34 35 36 36 36 37 36 36 38 39 39 40 40
8 8 7 8 8 8 7 8 7 8 9 11 15 17 13 14 13 16 16 13 15 13 21 27 33 36 37 37 37 37 37 38 39 37 36 36 38 39
7 7 7 8 13 11 6 7 8 8 8 11 14 16 16 14 16 14 18 18 16 13 14 13 14 14 16 24 29 34 32 33 35 36 35 39 39 39
8 7 7 7 10 15 15 16 14 10 12 11 12 16 22 17 16 17 18 18 24 10 15 17 13 16 15 14 27 35 37 36 38 36 37 37 40 39
8 7 5 6 7 7 11 17 18 21 24 17 18 17 23 18 20 22 21 20 23 16 17 20 13 17 15 17 34 37 40 38 37 37 36 37 38 39
7 5 6 7 8 9 9 10 12 13 14 13 16 17 19 18 19 20 23 22 19 17 13 20 13 17 15 15 34 37 38 37 38 36 34 33 31 36
5 6 6 8 12 15 11 10 13 12 15 23 29 33 33 34 33 19 17 17 20 20 13 18 17 17 15 16 16 32 35 36 37 36 32 32 30 30
5 6 12 9 16 16 11 9 12 11 13 15 12 16 21 19 29 18 14 17 17 22 11 15 15 14 18 12 12 11 12 22 22 29 30 33 31 15
6 5 5 11 14 17 18 9 10 14 15 10 11 12 13 13 12 13 15 15 17 20 16 17 15 14 15 18 14 13 13 15 14 17 26 26 24 16
7 5 5 9 13 15 13 17 20 18 7 9 10 11 12 12 12 13 17 18 17 24 21 20 17 16 16 17 18 14 15 13 12 14 14 21 27 25
6 7 7 7 7 7 13 17 13 7 8 9 11 12 12 13 18 18 18 20 21 21 18 20 16 17 18 19 16 15 17 13 12 15 15 14 14 11
6 2 2 4 3 4 5 9 7 7 9 10 12 13 13 14 15 15 16 15 16 15 16 20 22 21 19 19 18 17 15 16 9 13 16 15 13 10
5 3 1 1 2 2 4 6 6 8 9 10 11 13 14 14 16 14 14 16 16 17 16 13 16 19 19 23 19 17 17 16 15 15 16 15 12 13
4 2 0 2 3 4 4 6 7 9 9 10 11 13 14 15 17 15 15 14 17 16 16 13 14 15 15 20 28 19 17 16 14 15 16 16 16 15
2 2 2 2 3 5 5 6 8 9 11 10 12 13 14 15 19 17 16 15 16 16 15 14 13 13 16 17 13 27 18 16 15 14 14 15 17 17
2 2 3 3 2 4 5 7 8 9 10 10 12 13 14 15 16 17 16 18 17 17 16 14 13 13 15 17 16 16 29 17 14 14 14 15 16 27
3 3 4 2 3 4 6 7 8 9 10 12 12 13 14 14 16 16 18 23 23 17 18 16 14 22 14 15 17 17 16 29 25 16 14 11 10 10
3 5 2 2 3 4 6 6 8 9 9 10 12 13 14 15 16 18 18 19 17 16 18 16 15 12 12 14 17 20 16 14 21 31 34 23 9 8
5 2 1 3 4 4 4 6 8 8 9 11 12 13 15 15 16 17 18 18 18 17 17 18 14 12 14 14 18 16 21 19 13 11 11 26 32 37
Wind_Direction
174 179 185 185 199 221 232 229 257 303 301 128 243 179 94 278 289 301 299 300 302 300 299 296 295 293 291 288 285 281 279 277 275 274 272 272 268 263
164 174 185 182 205 216 228 229 230 255 283 78 303 299 299 298 296 298 296 294 292 291 291 292 292 292 291 287 283 278 275 273 270 268 266 264 265 259
166 174 183 177 201 219 226 232 238 243 269 288 290 299 299 299 297 296 293 287 285 284 283 287 292 293 290 286 282 278 275 273 271 270 267 263 259 261
176 178 186 201 212 218 231 239 244 246 267 286 294 296 296 299 295 294 287 277 276 275 283 287 285 285 287 286 281 277 275 271 269 264 262 262 260 255
170 179 185 191 226 224 225 237 247 260 266 278 291 298 293 296 295 286 280 278 274 279 281 283 283 282 282 281 279 277 275 270 268 265 260 256 259 254
180 189 194 206 223 231 237 246 254 261 267 272 281 291 292 291 285 291 289 284 285 280 279 280 280 282 281 280 278 277 274 271 267 269 260 255 252 257
183 196 216 222 237 241 244 249 253 258 264 270 277 286 289 293 289 294 289 292 282 281 282 277 276 273 273 273 269 267 266 273 270 264 272 260 249 245
186 201 217 229 246 258 262 271 268 267 268 269 278 286 287 288 293 294 289 289 291 265 271 274 269 271 270 265 265 271 268 272 273 269 264 269 241 240
191 203 218 238 238 251 267 275 279 281 278 279 280 282 289 289 291 289 281 277 276 276 275 276 265 266 268 264 266 268 270 271 269 270 271 277 235 238
198 205 234 250 250 260 259 264 265 264 266 267 272 278 276 280 275 280 282 279 281 283 274 272 277 266 266 261 265 269 270 270 270 270 267 264 247 239
191 229 235 249 259 280 274 275 275 273 280 284 286 287 289 295 294 292 285 286 282 279 268 267 276 271 270 267 256 263 268 269 269 269 264 258 250 248
196 221 243 247 272 281 279 284 286 288 292 282 285 294 289 285 286 279 283 279 282 282 266 266 273 273 281 257 252 254 256 268 299 283 262 255 248 246
187 189 209 255 277 284 300 292 285 289 300 308 294 285 282 282 280 272 267 270 280 279 295 278 266 267 260 274 271 266 269 274 275 276 273 263 253 257
183 189 199 255 288 299 305 298 300 312 311 293 287 286 288 288 288 286 280 275 270 274 284 270 274 275 267 267 268 265 256 254 256 260 254 251 256 255
156 190 233 282 283 311 300 306 313 298 290 287 288 289 290 292 295 292 280 281 277 274 274 269 273 275 269 260 264 259 263 257 253 249 251 248 247 252
175 116 192 265 274 284 301 295 293 291 290 288 287 292 297 297 295 286 295 294 287 285 278 276 271 266 267 261 265 262 255 255 250 247 248 248 244 237
101 64 28 279 299 291 280 283 294 291 290 291 295 298 296 295 290 292 295 296 289 293 291 282 273 269 269 272 266 249 252 249 245 251 255 261 250 244
48 88 7 297 292 311 297 302 296 292 291 297 294 293 294 297 293 297 300 294 293 292 290 290 288 284 276 264 249 256 245 247 242 240 238 244 250 242
110 198 160 243 293 301 301 290 294 294 296 291 291 295 294 294 295 305 303 299 295 291 287 287 282 277 279 276 280 258 241 244 245 240 234 232 247 248
200 173 202 229 266 283 293 289 294 298 297 297 296 294 291 296 305 306 305 303 299 295 292 285 274 266 262 266 279 276 290 256 232 236 236 243 241 258
185 218 218 218 259 273 279 283 285 288 294 296 292 289 299 303 309 307 305 306 301 299 294 289 282 273 267 269 265 267 265 260 241 236 239 235 246 261
180 223 218 235 247 247 274 277 284 289 299 298 293 294 295 314 313 311 310 308 305 300 295 295 293 279 264 257 263 268 272 268 266 239 234 236 238 241
210 196 253 262 254 243 258 275 270 288 296 293 292 298 304 317 315 310 309 306 306 305 305 302 296 284 269 260 261 267 268 271 279 253 239 232 241 241